CAPE
0 0 0 0 0 0 0 0 0 0 0 0 0 0 0 0 0 0 0 0 0 0 0 0 0 0 0 0 0 0 0 0 0 0 0 0 0 0 0 0 0 0 0 0
0 0 0 0 0 0 0 0 0 0 0 0 0 0 0 0 0 0 0 0 0 0 0 0 0 0 0 0 0 0 0 0 0 0 0 0 0 0 0 0 0 0 0 0
0 0 0 0 0 0 0 0 0 0 0 0 0 0 0 0 0 0 0 0 0 0 0 0 0 0 0 0 0 0 0 0 0 0 0 0 0 0 0 0 0 0 0 0
0 0 0 0 0 0 0 0 0 0 0 0 0 0 0 0 0 0 0 0 0 0 0 0 0 0 0 0 0 0 0 0 0 0 0 0 0 0 0 0 0 0 0 0
0 0 0 0 0 0 0 0 0 0 0 0 0 0 0 0 0 0 0 0 0 0 0 0 0 0 0 0 0 0 0 0 0 0 0 0 0 0 0 0 0 0 0 0
0 0 0 0 0 0 0 0 0 0 0 0 0 0 0 0 0 0 0 0 0 0 0 0 0 0 0 0 0 0 0 0 0 0 0 0 0 0 0 0 0 0 0 0
0 0 0 0 0 0 0 0 0 0 0 0 0 0 0 0 0 0 0 0 0 0 0 0 0 0 0 0 0 0 0 0 0 0 0 0 0 0 0 0 0 0 0 0
0 0 0 0 0 0 0 0 0 0 0 0 0 0 0 0 0 0 0 0 0 0 0 0 0 0 0 0 0 0 0 0 0 0 0 0 0 0 0 0 0 0 0 0
0 0 0 0 0 0 0 0 0 0 0 0 0 0 0 0 0 0 0 0 0 0 0 0 0 0 0 0 0 0 0 0 0 0 0 0 0 0 0 0 0 0 0 0
0 0 0 0 0 0 0 0 0 0 0 0 0 0 0 0 0 0 0 0 0 0 0 0 0 0 0 0 0 0 0 0 0 0 0 0 0 0 0 0 0 0 0 0
0 0 0 0 0 0 0 0 0 0 0 0 0 0 0 0 0 0 0 0 0 0 0 0 0 0 0 0 0 0 0 0 0 0 0 0 0 0 0 0 0 0 0 0
0 0 0 0 0 0 0 0 0 0 0 0 0 0 0 0 0 0 0 0 0 0 0 0 0 0 0 0 0 0 0 0 0 0 0 0 0 0 0 0 0 0 0 0
0 0 0 0 0 0 0 0 0 0 0 0 0 0 0 0 0 0 0 0 0 0 0 0 0 0 0 0 0 0 0 0 0 0 0 0 0 0 0 0 0 0 0 0
0 0 0 0 0 0 0 0 0 0 0 0 0 0 0 0 0 0 0 0 0 0 0 0 0 0 0 0 0 0 0 0 0 0 0 0 0 0 0 0 0 0 0 0
0 0 0 0 0 0 0 0 0 0 0 0 0 0 0 0 0 0 0 0 0 0 0 0 0 0 0 0 0 0 0 0 0 0 0 0 0 0 0 0 0 0 0 0
0 0 0 0 0 0 0 0 0 0 0 0 0 0 0 0 0 0 0 0 0 0 0 0 0 0 0 0 0 0 0 0 2 0 0 0 0 0 0 0 0 0 0 0
0 0 0 0 3 3 2 0 0 0 0 0 0 0 0 0 0 0 1 2 0 0 0 0 0 0 0 0 1 5 3 1 0 0 0 0 0 0 0 0 0 0 0 0
1 4 1 1 0 0 0 0 0 0 0 0 0 0 2 1 0 0 2 6 5 6 7 5 3 4 2 3 3 0 0 0 0 0 0 0 0 0 0 0 0 0 0 0
8 4 0 0 0 0 0 0 0 0 0 0 0 0 0 0 1 1 3 3 1 0 1 3 2 3 1 0 0 0 0 0 0 0 0 0 0 0 0 0 0 0 0 0
0 0 0 0 0 0 0 0 0 0 0 0 0 0 0 2 3 6 1 0 0 0 0 0 0 0 0 0 0 0 0 0 0 0 0 0 0 0 0 0 0 0 0 0
0 0 0 0 0 0 0 0 0 0 0 0 0 0 0 0 0 0 0 0 0 0 0 0 0 0 0 0 0 0 0 0 0 0 0 0 0 0 0 0 0 0 0 0
0 0 0 0 0 0 0 0 0 0 0 0 0 0 0 0 0 0 0 0 0 0 0 0 0 0 0 0 0 0 0 0 0 0 0 0 0 0 0 0 0 0 0 0
0 0 0 0 0 0 0 0 0 0 0 0 0 0 0 0 0 0 0 0 0 0 0 0 0 0 0 0 0 0 0 0 0 0 0 0 0 0 0 0 0 0 1 0
0 0 0 0 0 0 0 0 0 0 0 0 0 0 0 0 0 0 0 0 0 0 0 0 0 0 0 0 0 0 0 0 0 0 0 0 3 3 3 1 2 2 3 2
0 0 0 0 0 0 0 0 0 0 0 0 0 0 0 0 0 0 0 0 0 0 0 0 0 0 0 0 0 0 0 1 2 2 1 3 2 2 4 4 4 4 4 4
0 0 0 0 0 0 0 0 0 0 0 0 0 0 0 0 0 0 0 0 0 0 0 0 0 0 0 0 0 0 0 0 0 1 3 5 5 4 4 4 3 2 2 3
0 0 0 0 0 0 0 1 1 0 0 0 1 0 0 0 0 0 0 0 0 0 0 0 0 0 1 1 0 0 0 1 1 3 2 4 4 6 5 3 3 2 2 2
CIN
0 0 0 0 0 0 0 0 0 0 0 0 0 0 0 0 0 0 0 0 0 0 0 0 0 0 0 0 0 0 0 0 0 0 0 0 0 0 0 0 0 0 0 0
0 0 0 0 0 0 0 0 0 0 0 0 0 0 0 0 0 0 0 0 0 0 0 0 0 0 0 0 0 0 0 0 0 0 0 0 0 0 0 0 0 0 0 0
0 0 0 0 0 0 0 0 0 0 0 0 0 0 0 0 0 0 0 0 0 0 0 0 0 0 0 0 0 0 0 0 0 0 0 0 0 0 0 0 0 0 0 0
0 0 0 0 0 0 0 0 0 0 0 0 0 0 0 0 0 0 0 0 0 0 0 0 0 0 0 0 0 0 0 0 0 0 0 0 0 0 0 0 0 0 0 0
0 0 0 0 0 0 0 0 0 0 0 0 0 0 0 0 0 0 0 0 0 0 0 0 0 0 0 0 0 0 0 0 0 0 0 0 0 0 0 0 0 0 0 0
0 0 0 0 0 0 0 0 0 0 0 0 0 0 0 0 0 0 0 0 0 0 0 0 0 0 0 0 0 0 0 0 0 0 0 0 0 0 0 0 0 0 0 0
0 0 0 0 0 0 0 0 0 0 0 0 0 0 0 0 0 0 0 0 0 0 0 0 0 0 0 0 0 0 0 0 0 0 0 0 0 0 0 0 0 0 0 0
0 0 0 0 0 0 0 0 0 0 0 0 0 0 0 0 0 0 0 0 0 0 0 0 0 0 0 0 0 0 0 0 0 0 0 0 0 0 0 0 0 0 0 0
0 0 0 0 0 0 0 0 0 0 0 0 0 0 0 0 0 0 0 0 0 0 0 0 0 0 0 0 0 0 0 0 0 0 0 0 0 0 0 0 0 0 0 0
0 0 0 0 0 0 0 0 0 0 0 0 0 0 0 0 0 0 0 0 0 0 0 0 0 0 0 0 0 0 0 0 0 0 0 0 0 0 0 0 0 0 0 0
0 0 0 0 0 0 0 0 0 0 0 0 0 0 0 0 0 0 0 0 0 0 0 0 0 0 0 0 0 0 0 0 0 0 0 0 0 0 0 0 0 0 0 0
0 0 0 0 0 0 0 0 0 0 0 0 0 0 0 0 0 0 0 0 0 0 0 0 0 0 0 0 0 0 0 0 0 0 0 0 0 0 0 0 0 0 0 0
0 0 0 0 0 0 0 0 0 0 0 0 0 0 0 0 0 0 0 0 0 0 0 0 0 0 0 0 0 0 0 0 0 0 0 0 0 0 0 0 0 0 0 0
0 0 0 0 0 0 0 0 0 0 0 0 0 0 0 0 0 0 0 0 0 0 0 0 0 0 0 0 0 0 0 0 0 0 0 0 0 0 0 0 0 0 0 0
0 0 0 0 0 0 0 0 0 0 0 0 0 0 0 0 0 0 0 0 0 0 0 0 0 0 0 0 0 0 0 0 0 0 0 0 0 0 0 0 0 0 0 0
0 0 0 0 0 0 0 0 0 0 0 0 0 0 0 0 0 0 0 0 0 0 0 0 0 0 0 0 0 0 0 0 0 0 0 0 0 0 0 0 0 0 0 0
0 0 0 0 0 0 0 0 0 0 0 0 0 0 0 0 0 0 0 0 0 0 0 0 0 0 0 0 0 0 0 0 0 0 0 0 0 0 0 0 0 0 0 0
0 0 0 0 0 0 0 0 0 0 0 0 0 0 0 0 0 0 0 0 0 0 0 0 0 0 0 0 0 0 0 0 0 0 0 0 0 0 0 0 0 0 0 0
0 0 0 0 0 0 0 0 0 0 0 0 0 0 0 0 0 0 0 0 0 0 0 0 0 0 0 0 0 0 0 0 0 0 0 0 0 0 0 0 0 0 0 0
0 0 0 0 0 0 0 0 0 0 0 0 0 0 0 0 0 0 0 0 0 0 0 0 0 0 0 0 0 0 0 0 0 0 0 0 0 0 0 0 0 0 0 0
0 0 0 0 0 0 0 0 0 0 0 0 0 0 0 0 0 0 0 0 0 0 0 0 0 0 0 0 0 0 0 0 0 0 0 0 0 0 0 0 0 0 0 0
0 0 0 0 0 0 0 0 0 0 0 0 0 0 0 0 0 0 0 0 0 0 0 0 0 0 0 0 0 0 0 0 0 0 0 0 0 0 0 0 0 0 0 0
0 0 0 0 0 0 0 0 0 0 0 0 0 0 0 0 0 0 0 0 0 0 0 0 0 0 0 0 0 0 0 0 0 0 0 0 0 0 0 0 0 0 0 0
0 0 0 0 0 0 0 0 0 0 0 0 0 0 0 0 0 0 0 0 0 0 0 0 0 0 0 0 0 0 0 0 0 0 0 0 0 0 0 0 0 0 0 0
0 0 0 0 0 0 0 0 0 0 0 0 0 0 0 0 0 0 0 0 0 0 0 0 0 0 0 0 0 0 0 0 0 0 0 0 0 0 0 0 0 0 0 0
0 0 0 0 0 0 0 0 0 0 0 0 0 0 0 0 0 0 0 0 0 0 0 0 0 0 0 0 0 0 0 0 0 0 0 0 0 0 0 0 0 0 0 0
0 0 0 0 0 0 0 0 0 0 0 0 0 0 0 0 0 0 0 0 0 0 0 0 0 0 0 0 0 0 0 0 0 0 0 0 0 0 0 0 0 0 0 0
Wind_Speed
11 11 8 8 9 15 14 19 13 14 16 20 15 10 7 8 5 7 9 10 13 14 14 15 15 14 13 13 13 13 12 12 11 10 9 9 8 7 6 5 5 4 4 4
6 4 9 14 16 16 19 19 20 21 27 18 21 16 14 12 12 10 8 10 13 15 15 16 16 15 14 13 13 13 12 12 11 10 10 9 8 8 7 6 5 5 4 4
5 2 5 11 19 20 14 14 15 16 22 12 12 8 8 6 7 9 9 11 14 16 16 15 16 16 16 15 14 13 13 12 11 11 11 10 9 8 8 7 6 5 4 4
3 3 6 2 2 2 14 12 20 19 20 12 10 8 9 10 10 9 8 9 11 12 14 16 16 16 15 14 14 13 12 12 12 12 11 10 10 9 8 7 7 6 5 4
4 6 10 10 4 6 7 3 10 19 17 10 6 5 3 3 4 10 10 6 8 11 14 14 16 15 15 14 14 14 14 14 14 13 12 12 11 10 8 7 6 6 5 5
4 5 6 1 2 3 2 6 4 5 2 1 2 1 3 3 5 4 3 5 5 8 11 14 15 17 17 16 16 16 15 15 14 13 13 12 11 10 8 7 6 5 5 4
12 8 7 8 5 3 3 2 3 3 2 3 2 4 3 5 5 4 4 4 4 7 10 13 15 17 18 17 17 15 13 13 12 12 12 10 9 8 7 7 6 6 5 5
9 7 12 10 6 6 3 2 1 1 2 5 7 8 8 8 7 5 4 3 3 6 8 9 13 15 16 17 13 13 13 13 12 11 8 8 9 7 7 7 7 6 6 5
12 8 2 10 1 3 2 3 2 2 2 4 6 6 7 5 5 6 5 4 4 6 7 8 11 15 15 13 13 13 13 12 12 11 10 9 9 9 7 7 6 5 5 4
3 7 10 8 8 9 7 10 7 8 9 6 11 9 9 8 8 6 5 5 5 6 8 10 11 13 12 13 13 14 14 13 11 11 10 9 6 6 6 6 5 5 5 5
5 7 8 8 7 9 5 6 9 10 9 10 9 13 12 11 9 7 7 5 6 8 8 9 11 13 11 12 14 13 12 11 11 9 10 8 7 7 6 6 5 5 5 5
11 14 14 15 10 4 5 8 8 7 10 10 7 12 10 10 9 8 7 6 8 8 8 9 11 11 11 11 13 13 12 9 8 8 7 6 5 4 6 7 8 11 11 8
13 13 4 5 5 4 8 7 7 6 8 10 10 8 10 10 8 7 7 8 10 10 9 10 11 10 10 11 12 12 11 10 7 8 7 6 4 2 7 6 12 13 13 14
4 4 6 3 6 10 8 9 9 8 7 7 8 7 7 7 6 7 8 8 7 8 9 9 10 10 10 11 10 9 8 11 7 6 4 2 6 7 5 5 5 5 9 11
9 7 6 11 10 8 5 4 5 5 4 4 3 4 4 6 6 6 5 4 5 6 7 8 8 9 10 10 10 9 7 6 4 3 3 8 6 5 5 6 6 6 4 6
9 7 8 6 8 7 7 8 7 7 7 6 4 4 4 3 3 5 5 2 3 4 5 7 8 9 9 9 8 7 5 4 7 7 6 5 5 6 6 6 6 6 6 7
6 7 8 9 9 10 8 9 9 9 9 8 2 4 5 6 6 6 6 6 7 7 6 7 8 7 7 7 5 4 4 6 11 6 6 6 6 6 6 6 6 6 6 7
6 5 5 5 7 8 9 8 7 7 7 8 2 5 4 3 4 5 5 6 6 6 5 5 5 4 5 5 5 4 5 6 6 7 6 6 6 6 6 6 7 7 6 6
9 9 9 9 9 9 8 8 7 6 6 4 5 5 3 4 4 4 3 3 4 4 6 6 10 10 9 12 10 5 6 6 6 6 6 8 7 7 7 7 7 8 7 6
10 9 9 9 10 10 8 8 7 8 8 6 6 5 3 2 3 4 4 3 1 1 3 4 5 7 7 7 11 6 6 7 8 7 6 7 7 7 7 10 8 7 7 7
10 9 9 9 8 8 8 8 8 7 7 6 5 4 4 3 1 2 4 4 3 5 6 7 6 5 5 6 7 6 7 7 8 7 7 7 7 8 8 8 8 7 7 7
7 8 8 9 8 7 8 7 7 7 7 7 5 5 4 3 3 4 5 7 4 7 5 5 5 8 7 9 6 6 7 7 7 7 7 7 7 7 8 8 8 8 7 8
6 8 8 10 9 7 7 8 8 8 8 7 7 6 6 5 5 5 7 3 5 5 5 6 8 10 11 7 6 7 7 8 8 8 8 7 7 7 8 8 8 8 8 8
7 8 7 7 6 6 8 9 8 7 6 7 6 5 5 6 6 3 5 9 11 9 8 8 9 12 13 7 7 8 8 8 8 7 8 11 7 8 8 8 8 8 8 10
6 6 5 6 7 6 7 7 7 6 7 8 7 7 6 3 4 7 7 7 11 10 8 12 14 15 9 8 8 8 8 7 7 8 8 8 8 8 8 8 8 8 8 8
7 6 6 6 6 6 6 6 6 6 7 8 7 7 7 6 7 8 7 10 9 10 9 8 7 7 8 8 9 9 9 8 9 8 9 8 8 8 8 8 8 8 8 8
6 8 6 6 5 5 5 6 7 8 8 8 9 9 9 9 9 10 12 9 9 9 9 9 8 9 8 9 9 9 8 8 10 7 7 7 7 7 8 8 8 8 8 8
Wind_Direction
251 257 234 239 224 202 206 232 231 251 240 261 279 285 263 251 240 225 209 200 197 194 185 182 181 177 176 173 173 171 170 174 177 171 170 169 170 168 160 159 144 133 130 115
274 226 233 252 247 233 228 238 254 264 271 273 274 269 265 255 260 253 230 211 204 201 195 190 185 182 179 176 176 175 175 178 171 169 169 172 170 169 164 158 155 153 142 132
259 306 280 260 238 219 215 217 225 238 249 267 255 254 262 281 258 257 244 219 207 206 203 197 191 184 183 179 171 179 179 175 172 172 174 176 173 171 170 171 163 163 152 151
286 271 243 8 158 204 217 240 218 252 258 253 268 281 283 254 260 274 262 248 229 214 206 199 192 189 182 177 178 179 180 175 175 177 177 176 176 180 175 172 172 166 160 159
242 230 314 286 198 186 194 244 212 233 267 277 281 270 274 350 288 272 269 262 244 225 215 200 194 184 179 178 179 181 183 182 181 181 178 179 184 182 177 177 171 172 171 170
165 224 242 360 154 198 199 274 144 202 233 163 157 23 53 23 354 343 292 267 245 221 206 200 192 182 182 183 184 191 187 186 181 182 182 184 184 178 174 179 172 169 176 193
219 241 280 253 152 163 219 29 136 186 243 165 207 6 346 309 303 302 316 303 235 209 205 206 191 184 186 183 195 189 183 176 179 183 186 184 175 171 170 171 171 184 193 194
199 219 249 151 113 206 52 104 97 193 204 222 250 284 285 288 287 299 297 288 231 218 218 208 192 190 186 192 185 176 172 174 176 178 174 173 172 167 171 176 187 193 199 207
197 203 51 201 11 201 41 339 300 268 232 246 279 273 292 282 276 268 272 271 221 214 212 201 197 199 193 189 172 171 173 175 175 172 173 172 174 175 178 189 195 197 201 211
177 217 236 234 258 258 255 261 269 258 274 265 269 277 271 278 283 279 261 253 229 214 210 199 194 199 198 176 175 173 173 173 173 174 172 173 179 183 187 187 196 204 210 222
244 278 285 230 230 287 294 270 281 279 255 257 257 261 259 267 266 260 257 233 219 217 217 206 189 191 182 171 167 169 171 172 171 170 175 176 187 188 197 209 201 205 217 225
267 291 283 293 309 339 313 298 284 277 287 278 257 262 271 260 263 256 248 223 216 217 212 195 189 185 179 172 172 168 171 170 170 170 172 176 178 190 225 236 224 232 237 229
264 284 344 309 297 271 290 303 303 285 276 284 290 275 279 271 270 260 250 227 219 215 204 186 186 185 173 167 171 173 168 163 162 171 169 167 165 202 234 214 235 240 241 242
348 334 303 41 331 318 298 293 296 282 279 278 292 298 286 284 288 272 254 245 229 208 199 188 180 179 169 164 161 154 144 141 151 161 151 104 224 223 222 226 230 227 232 238
15 16 311 300 298 298 314 322 324 323 326 317 300 306 312 300 296 299 296 254 208 195 180 171 171 163 158 153 141 138 139 139 137 103 213 222 209 209 219 223 228 239 236 242
333 351 5 357 344 348 338 337 329 326 324 322 322 345 348 358 38 57 50 70 177 172 156 157 152 146 142 139 128 124 136 162 208 215 212 202 197 211 217 221 232 234 233 239
359 15 4 0 354 348 350 334 329 320 314 304 282 98 80 75 70 66 55 56 76 79 76 91 97 98 106 120 145 168 201 219 217 214 211 207 208 212 216 220 226 229 235 233
28 21 15 356 338 335 345 351 352 349 348 338 64 87 83 100 118 118 114 109 106 111 124 136 139 147 170 188 204 206 217 220 215 220 214 214 219 220 222 225 230 235 239 231
24 25 18 19 11 14 13 14 17 21 24 62 85 80 80 96 111 117 127 129 142 161 195 177 184 180 192 205 210 207 216 222 223 228 225 231 234 226 224 223 230 235 234 232
36 34 27 20 25 24 20 16 24 37 37 60 85 86 67 114 162 180 195 222 215 26 69 203 219 231 234 234 235 224 219 225 228 229 219 223 228 228 229 230 233 233 237 238
27 24 26 22 17 20 19 9 6 9 1 9 9 18 15 23 315 279 272 273 281 253 251 250 241 246 245 239 226 223 217 220 221 224 221 229 238 233 233 234 230 227 230 238
12 14 14 11 10 9 9 12 9 3 4 6 7 8 351 339 302 272 255 261 283 271 282 268 259 257 254 249 237 233 231 231 234 234 233 236 237 237 236 230 230 232 234 240
9 6 6 9 0 349 351 11 5 360 352 351 345 339 325 313 302 299 299 324 311 312 294 283 282 278 275 262 250 246 243 240 238 237 238 236 234 235 238 235 232 232 233 236
1 3 355 345 339 353 358 349 343 338 332 324 319 321 321 324 316 277 287 297 301 300 291 284 280 281 279 268 259 254 251 249 247 244 247 243 237 234 237 237 236 235 234 239
348 329 322 336 340 336 325 330 323 327 331 323 317 317 312 296 269 303 302 297 295 298 290 285 285 283 274 266 260 259 258 253 248 248 249 242 242 241 240 238 237 237 237 235
327 322 314 311 311 314 316 320 317 318 317 313 312 314 311 306 300 301 296 293 292 288 284 285 282 280 273 268 266 265 262 259 256 253 249 244 241 240 239 237 238 238 240 239
310 322 321 322 320 315 312 311 316 311 314 310 305 307 307 307 306 305 302 301 298 295 292 292 289 283 279 276 272 268 263 258 253 250 247 249 246 243 240 240 240 240 239 238